Regional Weather Roundup
Issued by NWS

Home | Current Version | Previous Version | Graphics & Text | Print | Product List | Glossary On
Versions: 1 2 3 4 5 6 7 8 9 10 11 12 13 14 15 16 17 18 19 20 21 22 23 24 25 26 27 28 29 30 31 32 33 34 35 36 37 38 39 40 41 42 43 44 45 46 47 48 49 50
000
ASUS43 KIND 241859
RWRIN

WEATHER ROUNDUP FOR INDIANA
NATIONAL WEATHER SERVICE INDIANAPOLIS IN
300 PM EDT TUE MAY 24 2016

NOTE: "FAIR" INDICATES FEW OR NO CLOUDS BELOW 12,000 FEET WITH NO
SIGNIFICANT WEATHER AND/OR OBSTRUCTIONS TO VISIBILITY.

* - STATION DOES NOT REPORT WEATHER SUCH AS PRECIPITATION OR FOG.

+ - STATION NOT QUALITY CONTROLLED BY THE NATIONAL WEATHER SERVICE.
    USE DATA WITH CAUTION...ESPECIALLY DEWPOINT AND RELATIVE
    HUMIDITY OBSERVATIONS.

INZ001>003-010>013-019-020-242000-
NORTHWEST INDIANA

CITY           SKY/WX    TMP DP  RH WIND       PRES   REMARKS
GARY /AIRPORT/ MOSUNNY   86  59  39 SW14      29.98F
RENSSELAER +   SUNNY     86  41  20 SW15G24   30.00F

$$

LMZ046-743>745-242000-
SOUTHERN LAKE MICHIGAN

STATION/POSITION TIME  TEMP    WIND        PRES    WAVE
                       AIR SEA DIR/SP/G            HT
                 (UTC) (F)     (DEG/KT/KT) (MB)    (FT)
BURNS HARBOR     1800   81     190/ 12/ 19 1015.9F
MICHIGAN CITY    1800   80     180/ 15/ 17   N/A
5NW MICH CITY    1810   74 58  260/  4/  6   N/A     0

$$

INZ004-005-014>016-021>024-242000-
NORTH CENTRAL INDIANA

CITY           SKY/WX    TMP DP  RH WIND       PRES   REMARKS
ELKHART        SUNNY     82  57  42 SW7G18    30.02F
GOSHEN         SUNNY     82  50  32 W9        30.02F
SOUTH BEND     SUNNY     83  50  31 SW16G23   30.01F

$$

INZ006>009-017-018-025>027-242000-
NORTHEAST INDIANA

CITY           SKY/WX    TMP DP  RH WIND       PRES   REMARKS
ANGOLA *+      MOSUNNY   82  52  34 SW10      30.04S
FORT WAYNE     MOSUNNY   82  45  27 VRB7      30.05S

$$

INZ028-029-035-036-043>045-051>053-242000-
WEST CENTRAL INDIANA

CITY           SKY/WX    TMP DP  RH WIND       PRES   REMARKS
CRAWFORDSVL +  SUNNY     81  51  34 SW9G18    30.04F
GREENCASTLE +  SUNNY     81  59  47 S10       30.06S
LAFAYETTE      SUNNY     83  49  30 MISG      30.02F
TERRE HAUTE    SUNNY     83  55  38 S14       30.04F

$$

INZ030>032-037>040-046>048-054>057-064-065-242000-
CENTRAL INDIANA

CITY           SKY/WX    TMP DP  RH WIND       PRES   REMARKS
INDIANAPOLIS   PTSUNNY   81  54  39 W12G18    30.05F
-EAGLE CREEK   SUNNY     81  51  35 VRB6      30.05F
KOKOMO *+      SUNNY     82  54  36 SW7       30.04S
SHELBYVILLE    SUNNY     83  48  29 SW9       30.06F

$$

INZ033-034-041-042-049-050-058-059-242000-
EAST CENTRAL INDIANA

CITY           SKY/WX    TMP DP  RH WIND       PRES   REMARKS
MUNCIE         SUNNY     82  43  25 W8        30.07S

$$

INZ060-061-067>069-081>083-085>088-242000-
SOUTHWEST INDIANA

CITY           SKY/WX    TMP DP  RH WIND       PRES   REMARKS
EVANSVILLE     CLOUDY    80  57  45 VRB6      30.06F
HUNTINGBURG *+ MOSUNNY   82  57  42 SW12G17   30.06F

$$

INZ062-063-066-070>080-084-089>092-242000-
SOUTH CENTRAL AND SOUTHEAST INDIANA

CITY           SKY/WX    TMP DP  RH WIND       PRES   REMARKS
BLOOMINGTON    MOSUNNY   82  50  32 S7        30.07F
MADISON *+     SUNNY     81  36  19 CALM      30.11F
SEYMOUR +      SUNNY     84  54  34 S7        30.07

$$





USA.gov is the U.S. government's official web portal to all federal, state and local government web resources and services.